Tracking 28790 objects as of 19-Apr-2024
HD Live streaming from Space Station
objects crossing your sky now

COSMOS 2165

Track COSMOS 2165 now!
10-day predictions
COSMOS 2165 is classified as:


NORAD ID: 21779
Int'l Code: 1991-077A
Perigee: 1,400.9 km
Apogee: 1,419.1 km
Inclination: 82.6 °
Period: 113.8 minutes
Semi major axis: 7780 km
RCS: 1.2522 m2 (large)
Launch date: November 12, 1991
Source: Commonwealth of Independent States (former USSR) (CIS)
Launch site: PLESETSK MISSILE AND SPACE COMPLEX (PKMTR)
Your satellite tracking list
Your tracking list is empty




NASA's NSSDC Master Catalog

Two Line Element Set (TLE):
1 21779U 91077A   24109.87152622  .00000037  00000-0  14198-3 0  9995
2 21779  82.6119  16.3787 0011701  55.0543  14.0564 12.64886737497483
Source of the keplerian elements: AFSPC